Theta_e
331 331 330 330 330 330 330 330 329 329 329 330 329 329 329 330 329 329 328 328 327 327 328 328 328 328 328 328 329 331 331 330 329 329 328 328 327 325 325 325 325 324
330 330 330 330 329 329 330 330 329 329 329 329 330 329 329 329 328 328 328 327 327 326 328 328 328 328 328 328 329 330 330 329 329 328 328 327 327 325 324 325 325 324
329 329 329 329 329 328 328 328 328 329 329 329 329 329 329 328 328 328 327 327 326 326 327 328 328 328 328 328 329 329 329 329 329 328 328 327 326 325 325 325 324 323
327 328 328 328 328 327 327 327 327 328 328 328 328 328 328 327 327 327 327 326 326 325 326 327 328 328 328 328 328 329 329 329 329 328 328 327 326 325 325 324 324 322
325 325 325 326 326 326 326 326 326 327 327 328 328 328 327 327 327 327 326 327 326 325 326 327 328 328 328 328 328 329 329 328 328 327 326 326 325 325 324 324 323 322
322 323 323 324 324 325 325 326 326 327 327 327 328 328 327 327 327 327 326 326 326 326 326 326 327 327 328 328 328 328 328 327 327 326 325 325 324 324 323 323 322 321
322 322 323 323 323 324 325 325 326 326 326 327 327 328 328 327 327 327 326 326 326 326 326 325 326 326 327 328 327 327 327 326 326 325 324 323 322 321 320 320 321 320
321 321 321 322 323 323 324 324 325 326 326 326 327 327 327 327 326 326 325 326 326 326 326 325 325 325 326 327 327 327 326 325 325 324 322 321 320 320 319 319 319 318
319 319 319 319 320 321 322 323 324 324 325 325 326 326 326 326 325 325 325 325 325 326 326 325 325 325 326 326 326 326 325 324 323 323 323 322 320 319 319 318 317 316
315 316 316 316 316 316 318 320 321 321 322 322 323 323 324 324 324 324 325 325 325 325 325 324 324 325 325 325 326 325 325 324 323 323 323 321 320 319 318 317 316 315
312 312 313 314 314 314 314 316 317 318 319 320 320 321 322 323 323 323 324 324 324 324 324 324 324 324 324 324 324 324 324 322 322 322 321 320 320 320 319 318 316 315
311 311 311 312 312 312 311 312 313 315 317 318 319 320 321 322 322 323 324 324 324 324 323 323 323 323 323 324 324 323 322 321 321 321 320 320 320 319 318 317 315 314
311 311 311 311 311 311 310 310 310 311 313 315 317 319 320 321 321 322 322 322 323 322 322 322 322 322 322 322 322 321 321 321 320 320 319 319 318 317 316 314 313 313
309 309 309 309 309 309 309 308 308 308 310 311 313 315 317 318 319 320 320 320 321 320 320 320 320 320 320 319 319 319 319 319 318 318 319 317 315 315 314 313 313 312
307 306 306 306 306 306 307 308 308 309 310 311 312 313 315 317 318 318 318 318 318 318 318 318 318 318 319 319 318 318 318 318 317 317 317 316 314 314 313 312 311 310
305 305 304 305 306 307 308 309 311 311 312 313 313 314 315 316 316 317 317 317 316 316 316 316 317 317 317 317 317 317 317 317 315 314 314 315 314 313 311 309 308 307
305 305 305 305 307 308 310 311 312 312 313 314 315 315 316 316 316 316 316 316 315 315 315 316 316 316 316 316 315 315 315 315 314 313 313 313 313 312 310 308 305 304
304 305 306 307 308 309 310 311 312 312 313 314 314 315 315 314 314 315 315 314 314 314 314 315 315 315 314 314 313 313 313 313 312 313 313 312 312 311 309 306 303 301
304 305 306 307 308 310 311 311 312 312 313 313 313 313 313 313 313 313 312 312 312 312 312 313 313 313 312 312 312 311 311 310 311 312 312 312 312 309 306 303 301 298
304 305 307 308 309 310 311 311 311 311 311 312 312 312 312 312 311 311 311 311 310 310 310 310 310 310 310 310 310 309 309 309 310 311 311 311 309 307 304 301 299 297
305 306 306 308 309 310 311 311 311 311 311 311 311 311 310 310 310 309 309 309 309 309 308 308 308 308 308 308 308 308 308 308 308 308 308 307 306 304 301 299 298 296
305 306 306 307 308 309 310 311 311 311 311 311 311 310 310 310 310 309 308 308 308 308 308 308 308 308 307 307 307 306 306 306 305 305 305 304 303 301 299 297 296 294
303 304 305 306 307 308 308 309 309 310 310 310 310 310 310 310 309 308 308 307 306 306 306 307 307 307 306 306 306 306 305 304 304 303 302 302 300 298 295 294 293 292
302 303 305 306 307 307 308 308 308 309 309 309 309 309 308 308 308 307 307 306 306 305 305 305 305 305 305 305 305 305 304 304 303 301 300 299 297 294 292 291 290 290
301 302 303 305 305 306 307 307 308 307 308 308 308 308 308 307 307 306 306 306 305 305 304 304 304 304 304 305 305 304 303 303 302 300 298 296 294 292 290 290 289 289
301 301 303 304 304 305 305 306 306 306 306 306 306 306 306 305 305 305 304 304 304 303 303 303 303 304 304 304 304 304 303 302 301 299 297 295 294 292 291 289 288 288
Wind_Speed
32 32 32 33 33 32 31 30 30 31 30 31 32 33 33 33 32 32 33 35 36 36 36 36 37 37 37 37 36 35 34 34 34 34 34 35 34 33 32 31 30 30
32 31 31 31 32 32 31 29 28 29 30 31 31 31 32 32 32 31 32 33 35 36 36 36 36 36 37 37 37 36 34 33 34 34 35 35 34 32 31 30 30 30
29 29 29 29 30 30 30 29 29 29 29 30 31 32 31 31 30 30 30 31 32 34 35 35 35 35 36 36 36 36 36 35 36 36 36 35 34 32 31 30 30 29
27 28 28 29 29 28 28 28 30 31 30 30 31 32 32 31 30 30 30 30 30 32 34 35 34 34 34 35 36 36 36 37 37 37 36 34 32 32 31 30 29 28
26 27 28 28 28 28 28 28 28 29 29 30 29 29 30 31 30 30 30 30 30 31 32 34 35 34 33 34 35 35 35 34 34 33 33 32 31 31 30 29 29 29
25 26 27 27 27 27 27 28 28 27 26 27 28 28 29 30 29 29 29 29 29 30 31 33 34 35 35 35 35 35 34 34 33 32 31 32 31 31 31 31 31 31
25 26 26 26 26 26 26 26 27 27 25 24 24 25 26 27 27 27 27 27 28 30 31 32 33 35 37 36 36 35 35 35 35 34 32 32 31 31 30 30 30 31
23 24 24 24 24 24 25 25 24 24 24 23 22 22 23 24 25 25 26 26 28 29 29 31 32 35 36 37 36 36 35 36 35 34 31 29 29 29 29 28 28 30
20 21 21 23 23 23 24 25 24 24 23 23 23 23 23 24 25 27 27 27 28 29 29 31 32 34 35 36 36 36 35 35 35 33 31 31 32 31 29 29 28 29
18 19 20 21 22 23 24 24 25 25 25 25 25 25 25 25 26 27 28 29 31 31 31 32 32 33 34 35 35 35 35 36 36 35 34 34 34 32 30 29 29 30
18 18 19 20 21 21 22 22 22 23 24 25 25 26 26 27 27 28 29 30 31 31 31 31 31 32 32 33 34 35 36 37 36 34 34 34 33 32 31 31 31 32
19 20 20 21 21 21 21 20 20 21 21 22 23 24 25 25 26 27 29 29 30 30 29 29 29 30 31 32 33 34 35 34 34 34 34 33 33 33 33 33 33 34
18 19 19 20 20 20 20 19 20 20 21 21 21 22 22 23 24 25 26 27 27 27 27 27 28 29 30 30 32 32 33 33 34 35 33 32 33 33 31 31 31 32
15 15 15 15 15 15 15 15 16 17 18 19 20 20 20 20 20 21 23 24 25 25 25 25 26 26 27 28 29 30 32 32 33 33 32 31 31 29 28 28 30 31
12 11 11 11 11 11 11 11 11 11 13 14 16 17 18 19 19 19 20 21 22 22 22 23 24 25 26 27 28 30 31 31 32 33 32 31 29 27 26 28 29 30
9 9 8 8 8 9 9 9 9 10 10 12 13 14 15 17 17 17 18 19 19 20 20 21 23 24 25 26 28 30 30 31 33 32 30 29 28 27 26 27 29 29
8 8 7 6 7 8 8 9 9 10 10 11 12 12 13 15 15 16 17 17 18 18 19 20 21 23 24 25 26 28 30 31 32 30 29 28 27 26 27 28 28 28
8 7 6 6 7 8 9 9 9 10 9 10 10 11 12 13 13 14 15 15 16 17 18 19 20 21 22 23 25 26 28 30 30 30 28 26 25 25 27 28 28 28
9 7 7 7 8 8 8 8 8 9 9 9 9 10 11 12 12 13 14 14 15 16 17 18 19 20 21 22 24 26 27 28 28 28 26 24 25 26 28 28 29 30
11 9 9 9 9 9 8 8 8 8 8 8 8 9 10 11 11 12 12 13 14 15 17 18 18 19 20 21 23 25 26 27 26 26 25 24 25 26 27 29 31 32
13 12 11 11 10 10 9 9 8 9 8 8 8 8 9 9 10 10 11 12 13 14 15 16 17 18 18 20 21 23 25 26 25 25 23 23 24 25 27 29 31 33
15 14 13 12 12 11 10 9 9 9 9 8 8 8 9 9 10 10 10 11 12 13 14 16 17 17 18 19 20 22 23 24 24 23 22 22 23 25 27 29 31 33
15 14 13 13 12 11 11 10 9 8 8 8 9 9 9 10 10 10 10 10 11 12 14 15 16 17 18 18 20 21 22 22 23 22 22 23 23 25 26 28 30 33
15 14 13 13 12 11 11 10 10 10 9 8 9 9 9 10 11 11 12 12 12 12 13 15 16 17 17 17 18 19 20 22 23 23 23 23 23 24 25 27 29 31
14 14 13 13 13 11 10 10 9 9 9 9 9 9 9 10 11 11 12 12 13 13 14 15 16 17 17 17 17 19 20 22 23 23 24 24 23 23 25 26 28 30
14 14 14 14 13 11 10 10 9 8 8 9 9 9 10 10 10 11 12 12 13 13 13 14 16 17 17 17 17 18 19 21 24 25 25 25 24 24 26 27 29 30
Wind_Direction
227 227 228 228 228 228 227 225 224 223 225 226 226 226 226 228 230 230 230 230 230 231 231 230 229 227 225 222 221 219 218 219 219 219 219 219 220 222 223 222 219 217
228 229 231 231 231 231 230 229 229 228 228 229 228 228 228 229 231 232 231 230 230 230 229 229 228 227 224 222 219 218 220 222 221 221 220 220 221 221 222 220 218 216
229 229 231 232 233 233 232 232 233 233 231 231 230 229 229 230 230 231 231 230 229 229 229 229 228 227 225 222 220 221 223 224 223 222 222 222 221 220 219 217 215 214
229 229 230 232 233 234 234 234 233 233 233 234 234 232 231 231 230 229 231 231 230 230 230 229 227 227 225 222 222 223 224 223 221 220 219 219 220 218 215 213 211 212
231 231 232 233 235 235 235 234 233 235 236 237 238 235 232 231 229 228 230 230 231 231 231 229 228 227 224 221 220 220 220 220 219 217 217 216 217 216 214 214 213 213
230 231 231 232 234 235 235 235 234 235 237 239 240 237 233 231 230 230 231 231 232 233 232 230 229 227 226 223 222 222 223 223 222 222 221 219 218 217 217 216 213 213
227 227 227 229 231 232 234 236 236 236 238 241 241 237 233 231 231 232 234 235 236 236 234 234 232 229 227 226 224 224 224 223 222 220 218 216 214 212 210 210 210 211
228 229 229 230 231 234 236 238 239 237 239 242 242 239 236 236 240 242 243 243 241 238 238 239 236 231 228 225 224 223 221 219 217 213 212 212 209 208 207 207 210 211
233 235 235 236 236 237 239 241 243 243 242 243 243 243 243 245 249 248 246 248 247 246 246 245 241 234 229 226 224 222 219 217 215 213 215 216 212 209 209 209 209 209
237 238 239 242 242 242 240 241 244 245 246 247 248 249 249 248 247 245 247 250 250 250 250 248 242 235 230 227 224 222 220 218 215 215 217 217 214 212 211 211 209 210
237 238 239 242 244 245 244 243 245 245 246 247 248 249 249 247 245 245 246 248 248 250 251 247 242 237 232 229 227 225 224 220 216 215 215 214 216 218 217 216 216 216
237 237 237 239 242 245 246 244 243 244 245 246 246 247 249 249 248 247 247 247 250 252 252 248 244 239 235 233 231 228 224 221 220 218 216 215 217 219 219 219 219 218
239 241 241 242 245 246 247 245 241 240 240 242 245 247 249 251 251 252 251 251 252 252 251 250 246 242 238 234 231 227 222 222 221 218 215 216 218 217 218 219 219 218
241 244 246 247 250 250 252 252 247 243 240 241 243 246 251 254 256 257 256 254 254 253 251 248 245 243 241 237 231 227 224 223 220 216 214 215 216 216 218 221 222 224
242 246 249 251 253 252 253 256 256 253 250 248 248 248 252 256 259 260 259 257 255 252 250 247 245 243 242 239 234 229 226 224 220 217 215 213 213 215 219 223 225 227
245 248 251 252 252 252 254 255 256 257 256 256 256 254 256 259 261 261 261 260 257 254 251 249 247 246 244 242 238 233 229 225 220 216 213 212 213 216 220 224 225 226
240 245 250 251 249 251 255 255 256 258 258 259 262 261 262 262 262 262 263 263 260 256 255 253 251 250 248 245 240 236 231 226 220 215 213 214 218 221 224 225 223 224
231 235 240 241 244 249 253 256 262 266 266 268 269 269 269 268 266 265 266 265 262 259 259 259 257 255 251 246 240 235 231 227 221 216 215 219 225 229 229 225 221 219
225 223 225 231 237 244 250 255 264 271 276 278 278 278 277 277 275 271 269 267 265 264 263 262 260 257 253 248 241 235 229 224 221 221 224 229 234 234 229 224 220 215
220 216 216 220 229 238 244 248 254 263 271 277 283 284 280 278 279 276 273 271 268 267 266 262 259 256 252 248 242 236 230 226 226 229 233 237 238 235 230 226 220 214
216 214 212 213 221 229 235 240 247 255 262 270 282 288 285 282 282 280 277 275 271 267 264 262 261 258 253 249 243 237 232 229 230 233 236 239 238 235 232 227 221 215
215 213 212 212 216 222 228 236 244 250 255 260 267 276 281 283 283 281 277 274 270 266 264 263 262 258 253 249 243 237 232 231 233 237 238 239 239 235 230 226 222 217
213 212 212 214 216 220 225 232 240 249 256 259 260 264 271 275 278 276 274 271 267 264 263 262 261 258 254 250 245 240 236 235 236 238 238 239 238 233 228 224 222 220
211 210 212 216 218 221 225 230 237 245 252 258 261 266 269 272 277 276 274 273 269 265 262 261 260 259 255 252 248 246 242 239 239 238 237 237 233 228 225 224 224 225
209 209 211 214 217 221 226 232 240 247 253 256 259 265 269 271 276 276 275 276 274 271 267 262 260 260 258 255 253 251 248 244 241 238 235 233 229 225 225 226 227 228
205 206 209 211 213 215 218 226 236 245 255 260 258 259 262 266 272 274 275 275 274 272 270 266 263 263 263 262 261 260 257 250 243 238 235 232 229 227 226 226 227 228